Monterey, CA (93940)

2:07 AM PST on December 10, 2016 (GMT -0800)
Oak Grove, Monterey CA | | Change Station

Elev 60 ft 36.60 °N, 121.88 °W | Updated 13 seconds ago

Light Rain
Light Rain Mist
61.2 °F
Feels Like 61.2 °F
N
2.1
Wind Variable Wind from SW
Gusts 13.0 mph

Today
High -- | Low -- °F
--% Chance of Precip.
Yesterday
High -- | Low -- °F
Precip. -- in
Pressure 30.21 in
Visibility 4.0 miles
Clouds Mostly Cloudy 2600 ft
Overcast 3900 ft
Dew Point 60 °F
Humidity 99%
Rainfall 0.02 in
Snow Depth Not available.
7:09 AM 4:51 PM
Waxing Gibbous, 82% visible
METAR KMRY 100954Z AUTO 06003KT 4SM -RA BR BKN026 OVC039 14/13 A3017 RMK AO2 RAB29 SLP228 P0002 T01390133
Pressure 30.21 in
Visibility 4.0 miles
Clouds Mostly Cloudy 2600 ft
Overcast 3900 ft
Dew Point 60 °F
Humidity 99%
Rainfall 0.02 in
Snow Depth Not available.
7:09 AM 4:51 PM
Waxing Gibbous, 82% visible
METAR KMRY 100954Z AUTO 06003KT 4SM -RA BR BKN026 OVC039 14/13 A3017 RMK AO2 RAB29 SLP228 P0002 T01390133

10-Day Weather Forecast

Almanac

Astronomy

Dec. 10, 2016 Rise Set
Actual Time
Civil Twilight
Nautical Twilight
Astronomical Twilight
Moon
Length of Visible Light
Length of Day
Tomorrow will be .
, % of the Moon is Illuminated

Today's Extremes

State Highs State Lows

Community

WunderPhotos

Upload Photos

1,956,536 photos uploaded!

WunderBlog® & News

Nearby

Air Quality

  Air Quality AQ Index Pollutant
Not available.

Snow Depth

Station Depth Elevation

Earthquake Activity

City Distance Mag. Time & Date
Minimum magnitude displayed is 2.5.

Coastal Water Temperatures

Place Temperature

Stations

Nearby Weather Stations

Station Location Temp. Windchill Dew Point Humidity Wind Precip. Elev Updated Type
                   

Watches & Warnings

There are currently no watches in effect.